INMARSAT GX5

Satellite information

Favourite Embed

Satellite Type and Status

PAYLOADIN ORBIT

Key statistics

Satellite INMARSAT GX5 at a glance.

Uptime

2164

Days in orbit

Revolutions

≈ 1.0

Per day

Orbit

GEO

Geostationary Orbit

Inclination

0.0

Latest

Satellite identification and parameters

Extended collection of information and parameters for INMARSAT GX5.

Object identification

Identified? True

Debris? False

Object name: INMARSAT GX5

International designator: 2019-080B

Object number (NORAD): 44801

Object ID (CCSDS): 44801

Country: INTERNATIONAL MARITIME SATELLITE ORGANIZATION (INMARSAT) (IM)

Current information (Y/N): Y

RCS size: LARGE

Orbital parameters

Period: 1436.108 minutes

Inclination: 0.0465 deg

SMA: 42164.956 km

Apoapsis: 35795.044 km

Periapsis: 35778.597 km

RAAN: 20.498 deg

Eccentricy: 0.00019503

Argument of periapsis: 200.3174 deg

Mean anomaly: 191.4316 deg

Mean motion: 1.00270987 rev/day

Mean motion (dot): 0.00000086 rev/day2

B* drag term: 0.0 1/REarth

Two-line elements (TLE)

Creation date: Oct. 27, 2025, 10:32 a.m.

Reference frame: TEME

Reference center: EARTH

Epoch: Oct. 27, 2025, 12:22 a.m. UTC

TLE line 0: 0 INMARSAT GX5

TLE line 1: 1 44801U 19080B 25300.01553012 .00000086 00000-0 00000-0 0 9996

TLE line 2: 2 44801 0.0465 20.4980 0001950 200.3174 191.4316 1.00270987 4440

Live tracking on map

Real-time ground track for satellite INMARSAT GX5.

In-orbit conjunctions

There are no conjunctions computed for INMARSAT GX5, at the moment. Check back to stay up to date, as we update our databases every day.

Go to all conjunctions

Associated space launch

TIBA-1 is a geostationary communications satellite for the Government of Egypt developed jointly by Thales Alenia Space (TAS) and Airbus. TAS, the leading partner, designed and built the communications payload, featuring a dual mission in Ka-band for secure and broadband communications. Airbus Defence and Space supplied the Eurostar E3000 platform and assembled and tested the spacecraft. Designed to remain in service in orbit for more than 15 years, TIBA-1 will have a launch mass of 5600 kg and an electric power capability of higher than 9 kW. Inmarsat-5 F5 (Global Xpress-5 or GX-5) is Inmarsat's very high throughput satellite (V-HTS), which will offer services covering the Middle East, Europe and the Indian sub-continent. The payload will be fully integrated into Inmarsat’s current Global Express high-speed network. Inmarsat-5 F5 satellite is based on Thales Alenia Space’s upgraded Spacebus 4000 B2 platform and will be fitted with 72 Ka-band beams. With a specified design life of 16 years, it will weigh 4007 kg at launch and will offer payload power of about 6.8 kW.

INMARSAT GX5 was lifted into orbit during the mission ‘Ariane 5 ECA | TIBA-1 & Inmarsat-5 F5 (Global Xpress-5)’, on board a Ariane 5 ECA space rocket.

The launch took place on Nov. 26, 2019, 9:23 p.m. from Ariane Launch Area 3.

For more information about the launch, click the button.

Launch to space Ariane 5 ECA | TIBA-1 & Inmarsat-5 F5 (Global Xpress-5)
Ariane 5 ECA | TIBA-1 & Inmarsat-5 F5 (Global Xpress-5)

Agency: N/A

Status: Launch Successful

Launch date: Nov. 26, 2019, 9:23 p.m. UTC

Rocket: Ariane 5 ECA

Launch pad: Ariane Launch Area 3

Location: Guiana Space Centre, French Guiana

...

Latest news about this satellite

News about space launch
Ariane 5 launches with TIBA-1 and Inmarsat GX5

News about space launch
An Ariane rocket launches for the 250th time—the views were jawdropping

News about space launch
Launch of 250th Ariane rocket marks new era for Inmarsat broadband fleet


Newsletter sign-up

Weekly statistics, charts and insights to help you stay on top of the space industry.